Powrót do katalogu

COSMOS 970 DEB

LostLEO
NORAD 64975·DEBRIS·🇷🇺 Russia

Wystrzelony Dec 21, 1977 z Baikonur Cosmodrome

Loading…

Następne Przeloty (najbliższe 24 godziny)

TLE

NieaktualneSource: Space-Track

Epoka: Aug 11, 2026, 18:55 UTC

1 64975U 77121CL  26223.78846796  .00001091  00000-0  68566-3 0  9994
2 64975  65.6426 357.3382 0063395 208.9986 150.7565 14.07592394649542

Śledź COSMOS 970 DEB w czasie rzeczywistym z AllMySat

Download on the App Store